Regional Weather Roundup
Issued by NWS

Home | Current Version | Previous Version | Text Only | Print | Product List | Glossary On
Versions: 1 2 3 4 5 6 7 8 9 10 11 12 13 14 15 16 17 18 19 20 21 22 23 24 25 26 27 28 29 30 31 32 33 34 35 36 37 38 39 40 41 42 43 44 45 46 47 48 49 50
000
ASUS44 KMEG 200310
RWRTN
TENNESSEE HOURLY STATE WEATHER ROUNDUP
NATIONAL WEATHER SERVICE MEMPHIS TN
900 PM CST FRI JAN 19 2018

TNZ002-004-019-021-049-052-054-088>092-200400-
WEST TENNESSEE

CITY           SKY/WX    TMP DP  RH WIND       PRES   REMARKS
MEMPHIS INTL   CLOUDY    42  20  41 S10       30.17F
NWS MEMPHIS      N/A     42 N/A N/A MISG        N/A
JACKSON        CLOUDY    41  20  43 S12       30.16F
DYERSBURG      CLOUDY    40  20  44 S8        30.14S WCI  34
SOMERVILLE     CLOUDY    43  19  39 S10G17    30.15F
COVINGTON      CLOUDY    39  23  52 S9        30.16S WCI  33
UNION CITY     CLOUDY    39  21  48 S9        30.12S WCI  33
BOLIVAR        CLOUDY    43  19  39 S7        30.17F
PARIS          CLOUDY    39  21  48 S9        30.12S WCI  33
HUNTINGDON     CLOUDY    41  21  45 S10       30.13S
LEXINGTON      CLOUDY    41  21  45 S9        30.17S
SELMER         CLOUDY    43  19  39 S9        30.18S
SAVANNAH       CLOUDY    43  19  39 S9        30.19S
$$

TNZ008-025-027-028-033-062-065-066-200400-
NORTH MIDDLE TENNESSEE

CITY           SKY/WX    TMP DP  RH WIND       PRES   REMARKS
NASHVILLE      MOCLDY    41  22  46 S10       30.17S
PORTLAND         N/A     37  25  60 S10       30.13S WCI  30
CLARKSVILLE    FAIR      39  22  50 S9        30.13S WCI  33
SMYRNA         CLOUDY    40  22  48 S3        30.20R
COOKEVILLE     CLOUDY    30  21  69 CALM      30.17S
GALLATIN       CLOUDY    41  21  45 CALM      30.19R
CROSSVILLE     FAIR      33  13  43 S3        30.18R
$$

TNZ061-075-076-078-094-096-097-200400-
SOUTH MIDDLE TENNESSEE

CITY           SKY/WX    TMP DP  RH WIND       PRES   REMARKS
FAYETTEVILLE   CLOUDY    43  18  36 S8        30.20S
TULLAHOMA      CLOUDY    39  18  41 S3        30.19S
WINCHESTER     CLOUDY    37  21  52 S5        30.21S WCI  34
MCMINNVILLE    CLOUDY    39  18  41 S5        30.18S
COLUMBIA       CLOUDY    43  19  39 SW9       30.17S
SHELBYVILLE    CLOUDY    41  21  45 S8        30.19S
$$

TNZ017-018-042-046-047-200400-
NORTHEAST TENNESSEE

CITY           SKY/WX    TMP DP  RH WIND       PRES   REMARKS
TRI CITIES     FAIR      24  16  71 CALM      30.20S
ELIZABETHTON   FAIR      25  18  74 CALM      30.21S
$$

TNZ012-013-036-069-073-074-200400-
CENTRAL EAST TENNESSEE

CITY           SKY/WX    TMP DP  RH WIND       PRES   REMARKS
KNOXVILLE      FAIR      35  12  38 SW5       30.20R WCI  31
OAK RIDGE      FAIR      27  20  75 CALM      30.22R
DOWNTOWN KNOXV CLEAR     27  21  80 CALM      30.22S
GATLINBURG     CLEAR     25  19  80 CALM      30.21S
MORRISTOWN     CLEAR     30  14  51 CALM      30.19S
JACKSBORO      CLEAR     25  19  80 CALM      30.23R
$$

TNZ083-085-099-200400-
SOUTHEAST TENNESSEE

CITY           SKY/WX    TMP DP  RH WIND       PRES   REMARKS
CHATTANOOGA    FAIR      32  13  45 CALM      30.24R
DAYTON         CLEAR     27  23  86 CALM      30.22R
$$

SKY/WX REPORTED AS FAIR MEANS FEW OR NO CLOUDS BELOW
12 THOUSAND FEET.





USA.gov is the U.S. government's official web portal to all federal, state and local government web resources and services.